Regional Weather Roundup
Issued by NWS

Home | Current Version | Previous Version | Graphics & Text | Print | Product List | Glossary Off
Versions: 1 2 3 4 5 6 7 8 9 10 11 12 13 14 15 16 17 18 19 20 21 22 23 24 25 26 27 28 29 30 31 32 33 34 35 36 37 38 39 40 41 42 43 44 45 46 47 48 49 50

000
ASUS43 KDMX 171801
RWRIA

WEATHER ROUNDUP FOR IOWA
NATIONAL WEATHER SERVICE DES MOINES IA
100 PM CDT TUE OCT 17 2017

NOTE: "FAIR" INDICATES FEW OR NO CLOUDS BELOW 12,000 FEET WITH NO
SIGNIFICANT WEATHER AND/OR OBSTRUCTIONS TO VISIBILITY.

* - THESE STATIONS ARE NOT NWS STATIONS...THUS NOT UNDER NWS
QUALITY CONTROL.  THEY ALSO DO NOT REPORT WEATHER SUCH
AS PRECIPITATION OR FOG.

IAZ001>003-012>014-020>022-031>034-043>046-171900-
   NORTHWEST IOWA

CITY           SKY/WX    TMP DP  RH WIND       PRES   REMARKS
CARROLL *      SUNNY     70  46  43 SW13      30.06F
CHEROKEE *     SUNNY     67  46  47 SW6       30.04F
DENISON *      SUNNY     66  45  45 SW8G15    30.08F
LE MARS *      SUNNY     72  43  35 S7        30.04F
ORANGE CITY *  SUNNY     72  45  37 S6        30.04F
SHELDON *      SUNNY     70  43  37 CALM      30.03F
SIOUX CITY     SUNNY     68  46  45 SE7       30.05F
6HR MIN TEMP:  38; 6HR MAX TEMP:  68;

SPENCER        SUNNY     72  41  32 VRB6      30.04F
6HR MIN TEMP:  42; 6HR MAX TEMP:  72;

STORM LAKE *   SUNNY     66  43  42 SW9       30.05F
$$

IAZ055>058-069>071-079>083-090>094-171900-
   SOUTHWEST IOWA

CITY           SKY/WX    TMP DP  RH WIND       PRES   REMARKS
ATLANTIC *     SUNNY     66  45  45 S12       30.09F
AUDUBON *      SUNNY     66  45  45 S10       30.09F
CLARINDA *     SUNNY     70  45  40 SW12G20   30.12F
COUNCIL BLFS * SUNNY     64  46  52 S8        30.08F
CRESTON *      SUNNY     68  45  42 SW20      30.12F
HARLAN  *      SUNNY     66  45  45 S7        30.11F
LAMONI         SUNNY     68  45  43 SW15G21   30.13F
6HR MIN TEMP:  47; 6HR MAX TEMP:  68;

RED OAK *      SUNNY     66  45  45 S13       30.10F
SHENANDOAH *   SUNNY     70  43  37 S13G18    30.10F
$$

IAZ047>049-059>061-072>074-084-171900-
   CENTRAL IOWA

CITY           SKY/WX    TMP DP  RH WIND       PRES   REMARKS
AMES           SUNNY     68  46  45 S14       30.08F
6HR MIN TEMP:  47; 6HR MAX TEMP:  68;

ANKENY *       SUNNY     68  43  40 SW13      30.10F
BOONE *        SUNNY     68  43  40 S14       30.07F
CHARITON *     SUNNY     68  43  40 SW17      30.13F
DES MOINES     MOSUNNY   70  42  36 SW14      30.10F
6HR MIN TEMP:  50; 6HR MAX TEMP:  70;

GRINNELL*      SUNNY     68  42  38 SW12G17   30.12F
KNOXVILLE *    SUNNY     68  41  37 SW13G21   30.11F
MARSHALLTOWN   SUNNY     69  44  40 SW18      30.08F
6HR MIN TEMP:  49; 6HR MAX TEMP:  69;

NEWTON *       SUNNY     70  41  35 S16G23    30.11F
PELLA *        SUNNY     69  41  36 SW13      30.14F
PERRY *          N/A     70  39  32 SW10      30.08F
$$

IAZ004>006-015-016-023>025-035-036-171900-
   NORTH CENTRAL IOWA

CITY           SKY/WX    TMP DP  RH WIND       PRES   REMARKS
ALGONA *       SUNNY     68  45  42 S10       30.05F
CLARION *      SUNNY     66  45  45 SW12      30.07S
ESTHERVILLE    SUNNY     70  41  34 SW7       30.03F
6HR MIN TEMP:  46; 6HR MAX TEMP:  70;

FORT DODGE *   SUNNY     67  45  45 S10       30.07F
MASON CITY     SUNNY     67  44  43 S10       30.07F
6HR MIN TEMP:  48; 6HR MAX TEMP:  67;

FOREST CITY *    N/A     68  45  42 S7        30.05F
WEBSTER CITY * SUNNY     68  41  37 SW13      30.05F
IOWA FALLS *     N/A     67  45  44 S9        30.09F
$$

IAZ007>011-017>019-026>030-037>042-050>054-066-171900-
   NORTHEAST IOWA

CITY           SKY/WX    TMP DP  RH WIND       PRES   REMARKS
CEDAR RAPIDS   SUNNY     70  42  36 SW16G22   30.11F
6HR MIN TEMP:  47; 6HR MAX TEMP:  70;

CHARLES CITY * SUNNY     68  43  40 S12       30.07F
CLINTON *      SUNNY     69  44  40 SW17G23   30.15F
DECORAH *      SUNNY     66  45  45 VRB7      30.06F
DUBUQUE        SUNNY     67  44  43 SW18      30.12F
6HR MIN TEMP:  45; 6HR MAX TEMP:  67;

MONTICELLO *   SUNNY     70  43  37 SW12G17   30.11F
OELWEIN *      SUNNY     66  45  45 SW15      30.09F
WATERLOO       SUNNY     67  43  41 SW12      30.08F
6HR MIN TEMP:  49; 6HR MAX TEMP:  67;

$$

IAZ064-065-067-068-078-171900-
   EAST CENTRAL IOWA

CITY           SKY/WX    TMP DP  RH WIND       PRES   REMARKS
DAVENPORT      SUNNY     68  42  38 S15G23    30.17F
6HR MIN TEMP:  50; 6HR MAX TEMP:  69;

IOWA CITY      LGT RAIN  71  43  36 SW16      30.14F
6HR MIN TEMP:  46; 6HR MAX TEMP:  71; 6HR PCP: TRACE;

MUSCATINE *    SUNNY     70  43  37 SW16G23   30.16F
QUAD CITIES    SUNNY     69  43  38 SW14      30.16F
6HR MIN TEMP:  49; 6HR MAX TEMP:  69;

$$

IAZ062-063-075>077-085>089-095>099-171900-
   SOUTHEAST IOWA

CITY           SKY/WX    TMP DP  RH WIND       PRES   REMARKS
BURLINGTON     SUNNY     68  44  42 SW15      30.19F
6HR MIN TEMP:  45; 6HR MAX TEMP:  68;

FAIRFIELD *    SUNNY     70  41  35 SW14G22   30.15F
FORT MADISON * SUNNY     70  43  37 S9G18     30.19F
KEOKUK *       SUNNY     68  41  37 S14G22    30.19F
OSKALOOSA *      N/A     69  42  37 SW15      30.14F
OTTUMWA        SUNNY     69  43  38 SW15      30.14F
6HR MIN TEMP:  47; 6HR MAX TEMP:  70;

WASHINGTON *   SUNNY     70  43  37 SW14G22   30.16F
$$

ABBREVIATIONS USED IN REMARKS
   TC - TEMPERATURES IN CELSIUS
  WCI - WIND CHILL INDEX
   HX - HEAT INDEX
  VSB - VISIBILITY
$$




USA.gov is the U.S. government's official web portal to all federal, state and local government web resources and services.